Flag for Kenya Weather past 2 weeks in Nairobi, Kenya

Now
66 °F

Partly sunny.


Feels Like: 66 °F
Forecast: 58 / 77 °F
Wind: 12 mph from East

Location: Nairobi / Wilson


UV Index: 3 (Moderate)

Visibility: N/A


Pressure: 30.18 "Hg

Humidity: 78%

Dew point: 59 °F

Location of NairobiLocation

Historic Weather in Nairobi

°F

Nairobi temperature yesterday

Maximum temperature yesterday: 75 °F (at 3:00 PM)
Minimum temperature yesterday: 59 °F (at 7:00 AM)
Average temperature yesterday: 68 °F

Past Weeks' High & Low Weather Summary

 TemperatureHumidityPressure
High81 °F (Apr 2, 3:00 PM)100% (Apr 4, 7:00 AM)30.24 "Hg (Apr 4, 7:00 AM)
Low57 °F (Apr 9, 7:00 AM)32% (Apr 8, 3:00 PM)29.89 "Hg (Apr 14, 12:00 PM)
Average69 °F70%30.14 "Hg
* Reported Apr 1 12:00 Noon — Apr 16 10:00 AM, Nairobi, Weather by CustomWeather, © 2014

Note: Actual official high and low records may vary slightly from our data, if they occured in-between our weather recording intervals... More about our weather records

Advertising

Historic Weather Conditions — Data for Previous 24 hours

 ConditionsComfort  
Time TempWeatherWind HumidityBarometerVisibility
10:00 AM
Apr 16
66 °FPartly sunny.12 mph78%30.18 "HgN/A
9:00 AM64 °FSprinkles. Broken clouds.15 mph88%30.15 "HgN/A
8:00 AM63 °FPartly sunny.5 mph94%30.15 "HgN/A
7:00 AM63 °FPartly sunny.6 mph94%30.12 "HgN/A
6:00 AM63 °FPassing clouds.6 mph88%30.12 "HgN/A
5:00 AM63 °FPassing clouds.6 mph94%30.12 "HgN/A
4:00 AM63 °FPassing clouds.6 mph94%30.12 "HgN/A
3:00 AM63 °FPassing clouds.No wind94%30.12 "HgN/A
2:00 AM63 °FPassing clouds.3 mph88%30.12 "HgN/A
1:00 AM64 °FPassing clouds.No wind83%30.15 "HgN/A
12:00 AM64 °FPassing clouds.9 mph83%30.15 "HgN/A
11:00 PM
Apr 15
64 °FClear.No wind83%30.18 "Hg10 mi
10:00 PM66 °FPassing clouds.6 mph83%30.15 "HgN/A
9:00 PM66 °FPassing clouds.6 mph78%30.12 "HgN/A
8:00 PM68 °FPassing clouds.8 mph73%30.09 "HgN/A
6:00 PM72 °FScattered clouds.14 mph65%30.07 "HgN/A
5:00 PM73 °FPartly sunny.14 mph61%30.07 "HgN/A
4:00 PM75 °FPartly sunny.12 mph54%30.07 "HgN/A
3:00 PM75 °FRain. Partly sunny.6 mph54%30.07 "HgN/A
2:00 PM73 °FRain. Partly sunny.9 mph61%30.12 "HgN/A
1:00 PM72 °FPartly sunny.6 mph65%30.15 "HgN/A
12:00 PM70 °FPartly sunny.6 mph64%30.18 "HgN/A
11:00 AM70 °FPartly sunny.No wind69%30.18 "HgN/A
Weather by CustomWeather, © 2014

See weather overview